Weather History for PHBK - November, 2012

Change the Weather History Date:

Tuesday, November 20, 2012

  Actual Average (PHLI) Record (PHLI)
Temperature  
Mean Temperature 76 °F 75 °F  
Max Temperature 81 °F 80 °F 85 °F (1954)
Min Temperature 70 °F 71 °F 63 °F (1985)
Degree Days  
Heating Degree Days 0 0  
Month to date heating degree days 0  
Since 1 July heating degree days 0  
Cooling Degree Days 11 10  
Month to date cooling degree days 226  
Year to date cooling degree days 3593  
Growing Degree Days 26 (Base 50)    
Moisture  
Dew Point 66 °F    
Average Humidity 75    
Maximum Humidity 100    
Minimum Humidity 48    
Precipitation  
Precipitation 0.00 in 0.14 in 4.30 in (1957)
Month to date precipitation 3.01  
Year to date precipitation 30.40  
Snow  
Snow 0.00 in - - ()
Month to date snowfall  
Since 1 July snowfall  
Since 1 September snowfall  
Snow Depth -    
Sea Level Pressure  
Sea Level Pressure 30.03 in    
Wind  
Wind Speed 4 mph (NE)    
Max Wind Speed 8 mph    
Max Gust Speed -    
Visibility 10 miles    
Events      
T = Trace of Precipitation, MM = Missing Value Source: NWS Daily Summary

Daily Weather History Graph

Daily Weather History Graph

Search for Another Location

Airport or City:

Trip Planner

Search our weather history database for the weather conditions in past years. The results will help you decide how hot, cold, wet, or windy it might be!

Date:

Astronomy

Nov. 20, 2012 Rise Set
Actual Time 6:54 AM HST 5:55 PM HST
Civil Twilight 6:30 AM HST 6:18 PM HST
Nautical Twilight 6:03 AM HST 6:46 PM HST
Astronomical Twilight 5:36 AM HST 7:12 PM HST
Moon 1:01 PM HST (11/20) 12:13 AM HST (11/20)
Length of Visible Light 11h 47m
Length of Day
11h 00m
First Quarter, 53% of the Moon is Illuminated
Nov 20
First Quarter
Nov 28
Full
Dec 6
Last Quarter
Dec 12
New
Dec 19
First Quarter

Hourly Weather History & Observations

Time (HST) Temp. Heat Index Dew Point Humidity Pressure Visibility Wind Dir Wind Speed Gust Speed Precip Events Conditions
12:56 AM 71.1 °F - 68.0 °F 90% 30.06 in 10.0 mi East 4.6 mph - N/A   Clear
1:56 AM 71.1 °F - 63.0 °F 75% 30.06 in 10.0 mi ESE 4.6 mph - N/A   Clear
2:56 AM 71.1 °F - 66.0 °F 84% 30.05 in 10.0 mi East 5.8 mph - N/A   Clear
3:56 AM 71.1 °F - 70.0 °F 96% 30.04 in 10.0 mi East 3.5 mph - N/A   Scattered Clouds
4:56 AM 71.1 °F - 69.1 °F 93% 30.03 in 10.0 mi ENE 4.6 mph - N/A   Clear
5:56 AM 71.1 °F - 71.1 °F 100% 30.03 in 10.0 mi East 4.6 mph - N/A   Clear
6:56 AM 71.1 °F - 66.9 °F 87% 30.04 in 10.0 mi ENE 4.6 mph - N/A   Clear
7:56 AM 72.0 °F - 68.0 °F 87% 30.06 in 10.0 mi Calm Calm - N/A   Clear
8:56 AM 77.0 °F - 64.9 °F 66% 30.07 in 10.0 mi Calm Calm - N/A   Clear
9:56 AM 78.1 °F - 59.0 °F 52% 30.08 in 10.0 mi Calm Calm - N/A   Clear
10:56 AM 78.1 °F - 73.9 °F 87% 30.06 in 10.0 mi NW 5.8 mph - N/A   Clear
11:56 AM 79.0 °F - 62.1 °F 56% 30.04 in 10.0 mi NW 6.9 mph - N/A   Clear
12:56 PM 80.1 °F 80.7 °F 59.0 °F 48% 30.01 in 10.0 mi NNW 8.1 mph - N/A   Clear
1:56 PM 81.0 °F 81.7 °F 61.0 °F 50% 29.98 in 10.0 mi NNW 6.9 mph - N/A   Scattered Clouds
2:56 PM 81.0 °F 86.2 °F 73.9 °F 79% 29.98 in 10.0 mi North 6.9 mph - N/A   Scattered Clouds
3:56 PM 80.1 °F 85.8 °F 77.0 °F 90% 29.97 in 10.0 mi NNW 5.8 mph - N/A   Scattered Clouds
4:56 PM 79.0 °F - 63.0 °F 58% 29.97 in 10.0 mi NNW 3.5 mph - N/A   Overcast
5:56 PM 78.1 °F - 75.9 °F 93% 29.99 in 10.0 mi Calm Calm - N/A   Mostly Cloudy
6:56 PM 75.9 °F - 60.1 °F 58% 30.01 in 10.0 mi Calm Calm - N/A   Mostly Cloudy
7:56 PM 73.9 °F - 64.0 °F 71% 30.01 in 10.0 mi East 3.5 mph - N/A   Clear
8:56 PM 72.0 °F - - N/A% 30.03 in 10.0 mi ESE 3.5 mph - N/A   Clear
9:56 PM 71.1 °F - 60.1 °F 68% 30.03 in 10.0 mi ESE 4.6 mph - N/A   Clear
10:56 PM 72.0 °F - 59.0 °F 64% 30.02 in 10.0 mi Calm Calm - N/A   Partly Cloudy
11:56 PM 70.0 °F - 57.9 °F 65% 30.01 in 10.0 mi East 3.5 mph - N/A   Clear